Weather History for Grand Marais, MN

Change the Weather History Date:

Sunday, October 30, 2011

  Actual Average (KCKC) Record (KCKC)
Temperature  
Mean Temperature 39 °F -  
Max Temperature 48 °F 38 °F 60 °F (2008)
Min Temperature 30 °F 27 °F 12 °F (1996)
Degree Days  
Heating Degree Days 26    
Moisture  
Dew Point 35 °F    
Average Humidity 78    
Maximum Humidity 96    
Minimum Humidity 61    
Precipitation  
Precipitation 0.00 in - - ()
Sea Level Pressure  
Sea Level Pressure 29.98 in    
Wind  
Wind Speed 6 mph (ENE)    
Max Wind Speed 16 mph    
Max Gust Speed 21 mph    
Averages and records for this station are not official NWS values.
T = Trace of Precipitation, MM = Missing Value Source: NWS Daily Summary

Daily Weather History Graph

Daily Weather History Graph

Search for Another Location

Airport:

Trip Planner

Search our weather history database for the weather conditions in past years. The results will help you decide how hot, cold, wet, or windy it might be!

Date:

Astronomy

Oct. 30, 2011 Rise Set
Actual Time 7:42 AM CDT 5:47 PM CDT
Civil Twilight 7:10 AM CDT 6:19 PM CDT
Nautical Twilight 6:33 AM CDT 6:55 PM CDT
Astronomical Twilight 5:57 AM CDT 7:31 PM CDT
Moon 12:14 PM CDT (10/30) 9:03 PM CDT (10/30)
Length of Visible Light 11h 09m
Length of Day
10h 04m
Waxing Crescent, 20% of the Moon is Illuminated
Oct 30
Waxing Crescent
Nov 2
First Quarter
Nov 10
Full
Nov 18
Last Quarter
Nov 25
New

Hourly Weather History & Observations

Time (CDT) Temp. Windchill Dew Point Humidity Pressure Visibility Wind Dir Wind Speed Gust Speed Precip Events Conditions
12:56 AM 32.0 °F 28.7 °F 30.0 °F 92% 30.03 in - North 3.5 mph - N/A   Unknown
1:56 AM 30.9 °F 27.5 °F 30.0 °F 96% 30.03 in - North 3.5 mph - N/A   Unknown
2:56 AM 32.0 °F 28.7 °F 30.0 °F 92% 30.02 in - NNE 3.5 mph - N/A   Unknown
3:56 AM 34.0 °F 31.0 °F 32.0 °F 92% 30.01 in - North 3.5 mph - N/A   Unknown
4:56 AM 35.1 °F 31.0 °F 33.1 °F 92% 29.99 in - NNE 4.6 mph - N/A   Unknown
5:56 AM 35.1 °F 32.2 °F 33.1 °F 92% 29.99 in - NNE 3.5 mph - N/A   Unknown
6:56 AM 37.0 °F 34.5 °F 34.0 °F 89% 29.99 in - NE 3.5 mph - N/A   Unknown
7:56 AM 39.9 °F 35.8 °F 36.0 °F 86% 29.99 in - NE 5.8 mph - N/A   Unknown
8:56 AM 42.1 °F 40.2 °F 36.0 °F 79% 29.99 in - NE 3.5 mph - N/A   Unknown
9:56 AM 45.0 °F 40.6 °F 39.0 °F 80% 29.98 in - NE 8.1 mph - N/A   Unknown
10:56 AM 46.9 °F - 36.0 °F 66% 29.98 in - East 5.8 mph - N/A   Unknown
11:56 AM 46.9 °F - 37.9 °F 71% 29.97 in - East 10.4 mph - N/A   Unknown
12:56 PM 46.9 °F - 37.0 °F 68% 29.96 in - East 11.5 mph - N/A   Unknown
1:56 PM 46.9 °F - 36.0 °F 66% 29.96 in - East 11.5 mph - N/A   Unknown
2:56 PM 48.0 °F - 35.1 °F 61% 29.95 in - East 6.9 mph - N/A   Unknown
3:56 PM 48.0 °F - 35.1 °F 61% 29.95 in - ESE 5.8 mph - N/A   Unknown
4:56 PM 46.0 °F 41.0 °F 37.9 °F 73% 29.96 in - SSE 10.4 mph - N/A   Unknown
5:56 PM 45.0 °F 42.6 °F 37.9 °F 76% 29.98 in - ESE 4.6 mph - N/A   Unknown
6:56 PM 45.0 °F 38.9 °F 37.9 °F 76% 29.98 in - ESE 12.7 mph 18.4 mph N/A   Unknown
7:56 PM 45.0 °F 38.9 °F 37.9 °F 76% 29.98 in - ESE 12.7 mph 18.4 mph N/A   Unknown
8:56 PM 45.0 °F 40.6 °F 37.9 °F 76% 29.97 in - East 8.1 mph 17.3 mph N/A   Unknown
9:56 PM 46.0 °F 39.6 °F 36.0 °F 68% 29.96 in - East 15.0 mph 20.7 mph N/A   Unknown
10:56 PM 46.0 °F 39.3 °F 37.9 °F 73% 29.97 in - East 16.1 mph - N/A   Unknown
11:56 PM 45.0 °F 41.8 °F 37.9 °F 76% 29.95 in - NE 5.8 mph - N/A   Unknown